Time,TemperatureF,DewpointF,PressureIn,WindDirection,WindDirectionDegrees,WindSpeedMPH,WindSpeedGustMPH,Humidity,HourlyPrecipIn,Conditions,Clouds,dailyrainin,SoftwareType,DateUTC
2013-07-09 15:01:00,103.2,58.2,29.65,NNW,333,0.0,0.0,23,0.00,,,0.00,Wunderground v.1.15,2013-07-09 21:01:00,
2013-07-09 15:07:00,103.6,60.9,29.63,NNW,334,0.0,1.0,25,0.00,,,0.00,Wunderground v.1.15,2013-07-09 21:07:00,
2013-07-09 15:16:00,103.6,58.6,29.64,East,88,0.0,0.0,23,0.00,,,0.00,Wunderground v.1.15,2013-07-09 21:16:00,
2013-07-09 15:21:00,103.0,58.1,29.64,North,350,0.0,0.0,23,0.00,,,0.00,Wunderground v.1.15,2013-07-09 21:21:00,
2013-07-09 15:26:00,102.4,57.6,29.64,East,94,0.0,0.0,23,0.00,,,0.00,Wunderground v.1.15,2013-07-09 21:26:00,
2013-07-09 15:31:00,102.3,58.7,29.64,ENE,67,0.0,3.0,24,0.00,,,0.00,Wunderground v.1.15,2013-07-09 21:31:00,
2013-07-09 15:36:00,102.1,58.5,29.63,East,99,0.0,3.0,24,0.00,,,0.00,Wunderground v.1.15,2013-07-09 21:36:00,
2013-07-09 15:46:00,102.0,59.5,29.62,NNW,329,0.0,0.0,25,0.00,,,0.00,Wunderground v.1.15,2013-07-09 21:46:00,
2013-07-09 15:51:00,102.0,59.5,29.62,NW,325,0.0,0.0,25,0.00,,,0.00,Wunderground v.1.15,2013-07-09 21:51:00,
2013-07-09 15:56:00,102.0,58.4,29.62,NNW,329,0.0,0.0,24,0.00,,,0.00,Wunderground v.1.15,2013-07-09 21:56:00,
2013-07-09 16:01:00,101.3,57.8,29.63,ENE,65,0.0,1.0,24,0.00,,,0.00,Wunderground v.1.15,2013-07-09 22:01:00,
2013-07-09 16:06:00,100.5,57.2,29.63,NE,55,1.0,1.0,24,0.00,,,0.00,Wunderground v.1.15,2013-07-09 22:06:00,
2013-07-09 16:16:00,100.0,57.9,29.63,East,94,0.0,0.0,25,0.00,,,0.00,Wunderground v.1.15,2013-07-09 22:16:00,
2013-07-09 16:26:00,99.6,57.5,29.62,ENE,62,0.0,0.0,25,0.00,,,0.00,Wunderground v.1.15,2013-07-09 22:26:00,
2013-07-09 16:31:00,99.2,57.2,29.62,SSE,150,0.0,0.0,25,0.00,,,0.00,Wunderground v.1.15,2013-07-09 22:31:00,
2013-07-09 16:36:00,99.2,57.2,29.62,East,86,0.0,0.0,25,0.00,,,0.00,Wunderground v.1.15,2013-07-09 22:36:00,
2013-07-09 16:41:00,99.0,57.0,29.62,SE,128,0.0,0.0,25,0.00,,,0.00,Wunderground v.1.15,2013-07-09 22:41:00,
2013-07-09 16:51:00,98.9,56.9,29.61,NW,311,0.0,0.0,25,0.00,,,0.00,Wunderground v.1.15,2013-07-09 22:51:00,
2013-07-09 16:56:00,98.9,56.9,29.61,ENE,74,0.0,0.0,25,0.00,,,0.00,Wunderground v.1.15,2013-07-09 22:56:00,
2013-07-09 17:01:00,98.9,56.9,29.61,NNW,338,0.0,0.0,25,0.00,,,0.00,Wunderground v.1.15,2013-07-09 23:01:00,
2013-07-09 17:06:00,98.7,56.8,29.61,ENE,78,0.0,0.0,25,0.00,,,0.00,Wunderground v.1.15,2013-07-09 23:06:00,
2013-07-09 17:16:00,98.5,56.6,29.60,ESE,118,0.0,0.0,25,0.00,,,0.00,Wunderground v.1.15,2013-07-09 23:16:00,
2013-07-09 17:21:00,98.4,56.5,29.61,ENE,61,0.0,0.0,25,0.00,,,0.00,Wunderground v.1.15,2013-07-09 23:21:00,
2013-07-09 17:26:00,98.5,56.6,29.60,NE,48,0.0,0.0,25,0.00,,,0.00,Wunderground v.1.15,2013-07-09 23:26:00,
2013-07-09 17:36:00,98.4,56.5,29.60,East,94,1.0,1.0,25,0.00,,,0.00,Wunderground v.1.15,2013-07-09 23:36:00,
2013-07-09 17:41:00,98.3,56.4,29.60,East,95,0.0,0.0,25,0.00,,,0.00,Wunderground v.1.15,2013-07-09 23:41:00,
2013-07-09 17:46:00,98.3,56.4,29.59,East,88,0.0,0.0,25,0.00,,,0.00,Wunderground v.1.15,2013-07-09 23:46:00,
2013-07-09 17:51:00,98.1,55.1,29.59,ESE,118,0.0,0.0,24,0.00,,,0.00,Wunderground v.1.15,2013-07-09 23:51:00,
2013-07-09 18:01:00,97.6,55.9,29.60,ESE,119,0.0,1.0,25,0.00,,,0.00,Wunderground v.1.15,2013-07-10 00:01:00,
2013-07-09 18:06:00,97.5,55.8,29.59,ESE,102,0.0,1.0,25,0.00,,,0.00,Wunderground v.1.15,2013-07-10 00:06:00,
2013-07-09 18:16:00,97.4,55.7,29.60,East,86,0.0,0.0,25,0.00,,,0.00,Wunderground v.1.15,2013-07-10 00:16:00,
2013-07-09 18:21:00,97.4,55.7,29.60,ESE,104,0.0,0.0,25,0.00,,,0.00,Wunderground v.1.15,2013-07-10 00:21:00,
2013-07-09 18:31:00,97.3,55.6,29.60,ENE,69,0.0,1.0,25,0.00,,,0.00,Wunderground v.1.15,2013-07-10 00:31:00,
2013-07-09 18:41:00,97.0,55.3,29.60,ENE,68,0.0,0.0,25,0.00,,,0.00,Wunderground v.1.15,2013-07-10 00:41:00,
2013-07-09 18:46:00,97.0,56.4,29.60,ESE,107,0.0,0.0,26,0.00,,,0.00,Wunderground v.1.15,2013-07-10 00:46:00,
2013-07-09 18:51:00,97.0,55.3,29.60,East,83,0.0,0.0,25,0.00,,,0.00,Wunderground v.1.15,2013-07-10 00:51:00,
2013-07-09 18:56:00,97.1,55.4,29.60,East,92,0.0,0.0,25,0.00,,,0.00,Wunderground v.1.15,2013-07-10 00:56:00,
2013-07-09 19:01:00,97.0,56.4,29.58,ENE,65,0.0,0.0,26,0.00,,,0.00,Wunderground v.1.15,2013-07-10 01:01:00,
2013-07-09 19:06:00,97.0,55.3,29.59,NE,55,0.0,0.0,25,0.00,,,0.00,Wunderground v.1.15,2013-07-10 01:06:00,
2013-07-09 19:16:00,96.7,55.1,29.59,ENE,64,0.0,0.0,25,0.00,,,0.00,Wunderground v.1.15,2013-07-10 01:16:00,
2013-07-09 19:21:00,96.6,55.0,29.59,East,80,0.0,0.0,25,0.00,,,0.00,Wunderground v.1.15,2013-07-10 01:21:00,
2013-07-09 19:26:00,96.4,54.8,29.60,East,80,0.0,0.0,25,0.00,,,0.00,Wunderground v.1.15,2013-07-10 01:26:00,
2013-07-09 19:31:00,96.1,54.6,29.60,East,98,0.0,3.0,25,0.00,,,0.00,Wunderground v.1.15,2013-07-10 01:31:00,
2013-07-09 19:41:00,95.3,55.0,29.60,ESE,117,0.0,0.0,26,0.00,,,0.00,Wunderground v.1.15,2013-07-10 01:41:00,
2013-07-09 19:46:00,94.9,53.6,29.60,SE,125,0.0,0.0,25,0.00,,,0.00,Wunderground v.1.15,2013-07-10 01:46:00,
2013-07-09 19:56:00,94.4,54.2,29.62,SE,146,0.0,0.0,26,0.00,,,0.00,Wunderground v.1.15,2013-07-10 01:56:00,
2013-07-09 20:01:00,94.0,53.9,29.62,SE,130,0.0,0.0,26,0.00,,,0.00,Wunderground v.1.15,2013-07-10 02:01:00,
2013-07-09 20:06:00,93.7,53.6,29.59,ESE,119,0.0,2.0,26,0.00,,,0.00,Wunderground v.1.15,2013-07-10 02:06:00,
2013-07-09 20:16:00,93.2,54.3,29.60,ENE,76,0.0,0.0,27,0.00,,,0.00,Wunderground v.1.15,2013-07-10 02:16:00,
2013-07-09 20:21:00,93.0,54.1,29.60,SSE,150,0.0,0.0,27,0.00,,,0.00,Wunderground v.1.15,2013-07-10 02:21:00,
2013-07-09 20:26:00,92.8,53.9,29.60,ESE,116,1.0,4.0,27,0.00,,,0.00,Wunderground v.1.15,2013-07-10 02:26:00,
2013-07-09 20:31:00,92.5,52.6,29.60,SE,127,1.0,1.0,26,0.00,,,0.00,Wunderground v.1.15,2013-07-10 02:31:00,
2013-07-09 20:36:00,92.2,52.4,29.60,NE,41,1.0,1.0,26,0.00,,,0.00,Wunderground v.1.15,2013-07-10 02:36:00,
2013-07-09 20:41:00,92.0,52.2,29.60,SE,126,1.0,4.0,26,0.00,,,0.00,Wunderground v.1.15,2013-07-10 02:41:00,
2013-07-09 20:46:00,91.8,52.0,29.61,ESE,108,1.0,4.0,26,0.00,,,0.00,Wunderground v.1.15,2013-07-10 02:46:00,
2013-07-09 20:56:00,91.4,51.7,29.63,SE,127,0.0,0.0,26,0.00,,,0.00,Wunderground v.1.15,2013-07-10 02:56:00,
2013-07-09 21:01:00,91.2,51.5,29.63,SE,127,1.0,1.0,26,0.00,,,0.00,Wunderground v.1.15,2013-07-10 03:01:00,
2013-07-09 21:06:00,91.0,51.4,29.61,ESE,119,0.0,1.0,26,0.00,,,0.00,Wunderground v.1.15,2013-07-10 03:06:00,
2013-07-09 21:16:00,90.6,51.0,29.61,ESE,109,0.0,0.0,26,0.00,,,0.00,Wunderground v.1.15,2013-07-10 03:16:00,
2013-07-09 21:21:00,90.4,50.8,29.62,East,88,0.0,0.0,26,0.00,,,0.00,Wunderground v.1.15,2013-07-10 03:21:00,
2013-07-09 21:26:00,90.2,50.7,29.62,ESE,115,0.0,0.0,26,0.00,,,0.00,Wunderground v.1.15,2013-07-10 03:26:00,
2013-07-09 21:31:00,90.0,50.5,29.62,East,89,0.0,0.0,26,0.00,,,0.00,Wunderground v.1.15,2013-07-10 03:31:00,
2013-07-09 21:36:00,89.9,50.4,29.62,ENE,61,0.0,2.0,26,0.00,,,0.00,Wunderground v.1.15,2013-07-10 03:36:00,
2013-07-09 21:41:00,89.7,50.3,29.62,East,86,0.0,0.0,26,0.00,,,0.00,Wunderground v.1.15,2013-07-10 03:41:00,
2013-07-09 21:46:00,89.6,50.2,29.62,SSE,160,0.0,0.0,26,0.00,,,0.00,Wunderground v.1.15,2013-07-10 03:46:00,
2013-07-09 21:51:00,89.4,52.0,29.63,SE,138,1.0,1.0,28,0.00,,,0.00,Wunderground v.1.15,2013-07-10 03:51:00,
2013-07-09 21:56:00,89.2,52.8,29.63,SE,133,1.0,1.0,29,0.00,,,0.00,Wunderground v.1.15,2013-07-10 03:56:00,
2013-07-09 22:01:00,89.1,52.7,29.63,ESE,119,0.0,0.0,29,0.00,,,0.00,Wunderground v.1.15,2013-07-10 04:01:00,
2013-07-09 22:11:00,88.8,54.3,29.61,SE,130,1.0,1.0,31,0.00,,,0.00,Wunderground v.1.15,2013-07-10 04:11:00,
2013-07-09 22:16:00,88.7,54.2,29.61,East,87,1.0,1.0,31,0.00,,,0.00,Wunderground v.1.15,2013-07-10 04:16:00,
2013-07-09 22:21:00,88.6,55.0,29.61,ESE,116,1.0,1.0,32,0.00,,,0.00,Wunderground v.1.15,2013-07-10 04:21:00,
2013-07-09 22:26:00,88.4,54.8,29.62,SE,125,1.0,1.0,32,0.00,,,0.00,Wunderground v.1.15,2013-07-10 04:26:00,
2013-07-09 22:31:00,88.2,54.6,29.62,East,101,1.0,5.0,32,0.00,,,0.00,Wunderground v.1.15,2013-07-10 04:31:00,
2013-07-09 22:36:00,88.1,54.5,29.62,SE,142,2.0,5.0,32,0.00,,,0.00,Wunderground v.1.15,2013-07-10 04:36:00,
2013-07-09 22:41:00,87.9,55.2,29.63,East,99,2.0,2.0,33,0.00,,,0.00,Wunderground v.1.15,2013-07-10 04:41:00,
2013-07-09 22:46:00,87.8,55.1,29.63,SSE,155,1.0,2.0,33,0.00,,,0.00,Wunderground v.1.15,2013-07-10 04:46:00,
2013-07-09 22:51:00,87.6,54.9,29.63,East,91,1.0,1.0,33,0.00,,,0.00,Wunderground v.1.15,2013-07-10 04:51:00,
2013-07-09 22:56:00,87.5,55.7,29.63,ESE,117,1.0,1.0,34,0.00,,,0.00,Wunderground v.1.15,2013-07-10 04:56:00,
2013-07-09 23:01:00,87.2,55.4,29.62,ESE,113,0.0,0.0,34,0.00,,,0.00,Wunderground v.1.15,2013-07-10 05:01:00,
2013-07-09 23:06:00,87.1,55.3,29.63,SE,126,0.0,0.0,34,0.00,,,0.00,Wunderground v.1.15,2013-07-10 05:06:00,
2013-07-09 23:16:00,86.8,55.1,29.63,ESE,110,1.0,1.0,34,0.00,,,0.00,Wunderground v.1.15,2013-07-10 05:16:00,
2013-07-09 23:21:00,86.7,55.0,29.64,SE,136,0.0,0.0,34,0.00,,,0.00,Wunderground v.1.15,2013-07-10 05:21:00,
2013-07-09 23:26:00,86.6,55.7,29.63,East,86,0.0,0.0,35,0.00,,,0.00,Wunderground v.1.15,2013-07-10 05:26:00,
2013-07-09 23:36:00,86.4,55.5,29.64,East,96,1.0,3.0,35,0.00,,,0.00,Wunderground v.1.15,2013-07-10 05:36:00,
2013-07-09 23:41:00,86.3,55.4,29.64,East,98,2.0,2.0,35,0.00,,,0.00,Wunderground v.1.15,2013-07-10 05:41:00,
2013-07-09 23:46:00,86.1,55.2,29.64,SE,143,1.0,2.0,35,0.00,,,0.00,Wunderground v.1.15,2013-07-10 05:46:00,
2013-07-09 23:51:00,85.9,55.8,29.65,East,92,0.0,0.0,36,0.00,,,0.00,Wunderground v.1.15,2013-07-10 05:51:00,
2013-07-09 23:56:00,85.8,55.8,29.65,ESE,117,0.0,0.0,36,0.00,,,0.00,Wunderground v.1.15,2013-07-10 05:56:00,